Location: Berkeley
(37.8716°N, 122.2727°W)
Time: 19:55:28
(UTC-07:00)

EO-79 - Visible Passes

Search period start: 21 May 2019 00:00
Search period end: 31 May 2019 00:00
Orbit: 592 x 610 km, 97.9° (Epoch: 21 May)

Date Brightness Start Highest point End Pass type
(mag) Time Alt. Az. Time Alt. Az. Time Alt. Az.
21 May ? 01:43:58 10° N 01:46:09 30° N 01:46:09 30° N visible
22 May ? 01:55:30 10° N 01:57:48 31° N 01:57:48 31° N visible
23 May ? 02:07:05 10° N 02:09:27 29° NNW 02:09:27 29° NNW visible
24 May ? 00:43:41 10° NE 00:44:19 13° NE 00:44:19 13° NE visible
24 May ? 02:18:45 10° N 02:21:05 25° NW 02:21:05 25° NW visible
25 May ? 00:54:43 10° NE 00:55:57 16° NE 00:55:57 16° NE visible
25 May ? 02:30:31 10° NNW 02:32:44 21° NW 02:32:44 21° NW visible
26 May ? 01:05:55 10° NNE 01:07:36 21° NE 01:07:36 21° NE visible
26 May ? 02:42:24 10° NNW 02:44:23 17° NW 02:44:23 17° NW visible
27 May ? 01:17:12 10° NNE 01:19:15 26° NE 01:19:15 26° NE visible
27 May ? 02:54:32 10° NW 02:56:01 13° WNW 02:56:01 13° WNW visible
28 May ? 01:28:34 10° NNE 01:30:53 31° NNE 01:30:53 31° NNE visible
29 May ? 01:40:01 10° NNE 01:42:31 36° NNE 01:42:31 36° NNE visible
30 May ? 01:51:30 10° N 01:54:09 37° N 01:54:09 37° N visible
